Waarnemingen

Advertentie
Mijn weer
Shoeburyness Landwick, Groot Brittannië (3693): temperatuur & dauwpunt: 21.01.2021 14:00:00 - 27.01.2021 14:00:00 (GMT)Shoeburyness Landwick, Groot Brittannië (3693): temperatuur -20cm & temperatuur -100cm: 21.01.2021 14:00:00 - 27.01.2021 14:00:00 (GMT)Shoeburyness Landwick, Groot Brittannië (3693): windsnelheid & windstoten: 21.01.2021 14:00:00 - 27.01.2021 14:00:00 (GMT)Shoeburyness Landwick, Groot Brittannië (3693): windrichting: 21.01.2021 14:00:00 - 27.01.2021 14:00:00 (GMT)Shoeburyness Landwick, Groot Brittannië (3693): luchtdruk: 21.01.2021 14:00:00 - 27.01.2021 14:00:00 (GMT)Shoeburyness Landwick, Groot Brittannië (3693): zicht: 21.01.2021 14:00:00 - 27.01.2021 14:00:00 (GMT)Shoeburyness Landwick, Groot Brittannië (3693): Zonneschijnduur: 21.01.2021 14:00:00 - 27.01.2021 14:00:00 (GMT)Shoeburyness Landwick, Groot Brittannië (3693): neerslag: 21.01.2021 14:00:00 - 27.01.2021 14:00:00 (GMT)
Datum & Tijd tt [°C] td [°C] tt -20cm [°C] tt -100cm [°C] ff [km/u] ff [kn] fx [km/u] fx [kn] dd ppp [hPa] vv [km] sd [min] rr [mm]
27.01.2021 14:00:00 - - - - - - - - - - - - -
27.01.2021 13:00:00 9,6 8,2 - - 13 7 - - W 1011,7 8 0 0,0
27.01.2021 12:00:00 9,2 8,2 - - 11 6 - - W 1012,1 9 0 0,0
27.01.2021 11:00:00 8,6 7,9 - - 13 7 - - W 1012,3 6 0 0,0
27.01.2021 10:00:00 7,7 7,5 - - 13 7 - - W 1011,8 3,8 0 0,0
27.01.2021 09:00:00 6,8 6,6 4,4 7,4 8 4 - - W 1011,3 3,3 0 0,0
27.01.2021 08:00:00 6,3 6,1 - - 9 5 - - W 1010,6 3,4 0 0,2
27.01.2021 07:00:00 6,1 5,8 - - 4 2 - - W 1010,2 3,7 0 0,0
27.01.2021 06:00:00 7,0 6,7 - - 8 4 - - W 1010,3 6 0 0,0
27.01.2021 05:00:00 7,2 7,0 - - 8 4 - - W 1010,3 5 0 0,0
27.01.2021 04:00:00 7,1 7,0 - - 9 5 - - W 1009,6 3,3 0 0,0
27.01.2021 03:00:00 6,5 6,3 - - 13 7 - - WZW 1009,5 6 0 0,0
27.01.2021 02:00:00 6,2 6,1 - - 13 7 - - WZW 1009,8 17 0 0,0
27.01.2021 01:00:00 5,6 5,4 - - 21 11 - - ZW 1009,9 2,7 0 0,0
27.01.2021 00:00:00 5,2 4,9 - - 22 12 - - ZZW 1010,4 2,5 - 0,2
26.01.2021 23:00:00 5,0 4,5 - - 24 13 - - ZZW 1010,9 3,7 0 0,4
26.01.2021 22:00:00 5,2 4,4 - - 28 15 - - ZZW 1011,5 3,3 0 0,6
26.01.2021 21:00:00 5,2 4,4 - - 28 15 - - ZZW 1012,1 8 0 0,4
26.01.2021 20:00:00 4,9 4,1 - - 28 15 - - ZZW 1012,6 11 0 0,4
26.01.2021 19:00:00 4,8 4,0 - - 24 13 - - Z 1014,0 8 0 0,6
26.01.2021 18:00:00 4,8 4,0 - - 18 10 - - Z 1014,6 12 0 0,2
26.01.2021 17:00:00 5,5 3,5 - - 21 11 - - ZZW 1015,0 10 0 0,0
26.01.2021 16:00:00 5,3 3,8 - - 15 8 - - ZZW 1015,6 30 0 0,0
26.01.2021 15:00:00 5,0 3,3 - - 9 5 - - ZZO 1015,8 30 0 0,2
26.01.2021 14:00:00 4,7 3,3 - - 8 4 - - WZW 1017,0 10 0 0,6
26.01.2021 13:00:00 5,5 2,0 - - 18 10 - - ZW 1017,6 45 0 0,0
26.01.2021 12:00:00 4,4 1,4 - - 11 6 - - ZZW 1017,4 50 0 0,0
26.01.2021 11:00:00 4,1 0,7 - - 9 5 - - ZW 1018,0 50 18 0,0
26.01.2021 10:00:00 3,0 -0,1 - - 11 6 - - WZW 1018,5 35 0 0,0
26.01.2021 09:00:00 2,0 0,0 3,7 7,5 5 3 - - W 1018,2 35 0 0,0
26.01.2021 08:00:00 1,4 -0,4 - - 9 5 - - WZW 1018,1 30 0 0,0
26.01.2021 07:00:00 1,2 -0,8 - - 8 4 - - W 1017,7 35 0 0,0
26.01.2021 06:00:00 1,0 -0,6 - - 8 4 - - W 1017,7 35 0 0,0
26.01.2021 05:00:00 0,8 -0,9 - - 11 6 - - W 1017,6 35 0 0,0
26.01.2021 04:00:00 0,6 -1,5 - - 11 6 - - W 1017,3 40 0 0,0
26.01.2021 03:00:00 1,1 -1,6 - - 15 8 - - W 1017,3 50 0 0,0
26.01.2021 02:00:00 0,8 -1,9 - - 15 8 - - W 1016,7 50 0 0,0
26.01.2021 01:00:00 1,1 -1,7 - - 15 8 - - WNW 1016,6 45 0 0,0
26.01.2021 00:00:00 1,6 -1,6 - - 16 9 - - WNW 1016,0 45 - 0,0
25.01.2021 23:00:00 2,1 -1,3 - - 21 11 - - W 1015,7 50 0 0,0
25.01.2021 22:00:00 2,2 -1,0 - - 18 10 - - W 1015,1 50 0 0,0
25.01.2021 21:00:00 2,7 -0,9 - - 22 12 - - W 1014,6 50 0 0,0
25.01.2021 20:00:00 2,9 -1,1 - - 24 13 - - W 1014,0 45 0 0,0
25.01.2021 19:00:00 3,0 -1,1 - - 21 11 - - W 1013,2 50 0 0,0
25.01.2021 18:00:00 3,2 -0,9 - - 21 11 - - WNW 1012,4 45 0 0,0
25.01.2021 17:00:00 3,6 -0,5 - - 22 12 - - WNW 1012,0 50 12 0,0
25.01.2021 16:00:00 4,5 0,1 - - 21 11 - - WNW 1011,3 45 60 0,0
25.01.2021 15:00:00 5,0 0,7 - - 22 12 - - WNW 1010,5 45 60 0,0
25.01.2021 14:00:00 5,0 0,8 - - 22 12 - - WNW 1009,9 40 60 0,0
25.01.2021 13:00:00 4,1 0,0 - - 18 10 - - WNW 1009,6 45 60 0,0
25.01.2021 12:00:00 3,4 -0,4 - - 18 10 - - WNW 1009,4 28 60 0,0
25.01.2021 11:00:00 2,6 -0,8 - - 15 8 - - WNW 1008,9 35 60 0,0
25.01.2021 10:00:00 0,9 -1,8 - - 13 7 - - NW 1008,2 23 60 0,0
25.01.2021 09:00:00 -0,4 -3,1 4,2 7,7 13 7 - - NW 1007,5 30 54 0,0
25.01.2021 08:00:00 -1,4 -3,2 - - 11 6 - - NW 1006,7 30 0 0,0
25.01.2021 07:00:00 -1,0 -2,7 - - 16 9 - - NW 1005,5 35 0 0,0
25.01.2021 06:00:00 -0,7 -2,4 - - 16 9 - - NNW 1004,6 35 0 0,0
25.01.2021 05:00:00 -0,4 -1,3 - - 18 10 - - NNW 1003,8 15 0 0,0
25.01.2021 04:00:00 0,1 -1,0 - - 21 11 - - NNW 1002,7 30 0 0,0
25.01.2021 03:00:00 0,6 -0,6 - - 21 11 - - N 1001,7 30 0 0,0
25.01.2021 02:00:00 1,0 -0,2 - - 24 13 - - N 1000,5 35 0 0,0
25.01.2021 01:00:00 1,5 0,4 - - 16 9 - - NNO 999,5 40 0 0,4
25.01.2021 00:00:00 1,7 1,0 - - 18 10 - - NNO 998,7 8 - 0,2
24.01.2021 23:00:00 1,5 0,8 - - 22 12 - - N 997,3 22 0 0,0
24.01.2021 22:00:00 1,9 1,0 - - 21 11 - - N 996,5 30 0 0,0
24.01.2021 21:00:00 2,0 1,5 - - 22 12 - - ONO 995,6 50 0 0,2
24.01.2021 20:00:00 1,7 1,5 - - 11 6 - - N 995,0 18 0 0,2
24.01.2021 19:00:00 1,9 1,6 - - 8 4 - - NNO 994,3 8 0 0,0
24.01.2021 18:00:00 1,9 1,4 - - 4 2 - - O 994,1 14 0 0,0
24.01.2021 17:00:00 2,1 1,5 - - 13 7 - - ZO 994,0 10 0 0,2
24.01.2021 16:00:00 2,6 1,5 - - 18 10 - - ZZO 994,0 4,4 0 0,0
24.01.2021 15:00:00 3,2 1,5 - - 22 12 - - ZZO 993,9 16 0 0,2
24.01.2021 14:00:00 3,8 1,3 - - 24 13 - - ZZO 994,4 35 0 0,0
24.01.2021 13:00:00 4,2 -0,4 - - 22 12 - - Z 995,2 45 0 0,0
24.01.2021 12:00:00 4,2 1,6 - - 24 13 - - ZO 996,1 40 0 0,0
24.01.2021 11:00:00 3,1 -0,3 - - 21 11 - - ZO 997,1 40 0 0,0
24.01.2021 10:00:00 2,2 -0,5 - - 16 9 - - ZO 997,7 50 0 0,0
24.01.2021 09:00:00 1,0 -0,1 4,7 7,7 13 7 - - ZZO 998,4 50 0 0,0
24.01.2021 08:00:00 -1,1 -1,9 - - 4 2 - - ZZO 998,9 25 0 0,0
24.01.2021 07:00:00 -1,4 -1,8 - - 8 4 - - WZW 999,2 15 0 0,0
24.01.2021 06:00:00 -0,8 -1,5 - - 9 5 - - WZW 999,2 16 0 0,0
24.01.2021 05:00:00 -1,1 -1,9 - - 8 4 - - WZW 999,4 21 0 0,0
24.01.2021 04:00:00 -0,8 -2,0 - - 5 3 - - W 999,3 19 0 0,0
24.01.2021 03:00:00 -0,4 -1,5 - - 13 7 - - W 999,4 20 0 0,0
24.01.2021 02:00:00 -0,2 -1,5 - - 11 6 - - W 999,2 26 0 0,0
24.01.2021 01:00:00 0,0 -1,3 - - 13 7 - - WNW 998,7 35 0 0,0
24.01.2021 00:00:00 0,0 -1,3 - - 13 7 - - W 998,3 30 - 0,0
23.01.2021 23:00:00 0,0 -1,0 - - 13 7 - - WNW 998,0 19 0 0,0
23.01.2021 22:00:00 0,7 -0,9 - - 15 8 - - WNW 997,5 26 0 0,0
23.01.2021 21:00:00 1,0 -0,5 - - 16 9 - - WNW 997,3 30 0 0,0
23.01.2021 20:00:00 1,0 -0,6 - - 15 8 - - WNW 996,7 30 0 0,0
23.01.2021 19:00:00 0,9 -0,6 - - 13 7 - - WNW 996,2 45 0 0,0
23.01.2021 18:00:00 1,0 -0,9 - - 11 6 - - W 995,9 23 0 0,0
23.01.2021 17:00:00 1,6 0,0 - - 13 7 - - NNW 995,6 40 0 0,0
23.01.2021 16:00:00 3,0 1,1 - - 16 9 - - NW 994,9 28 12 0,0
23.01.2021 15:00:00 3,3 1,4 - - 11 6 - - NW 994,6 13 12 0,0
23.01.2021 14:00:00 2,3 1,0 - - 15 8 - - NW 994,5 14 0 0,0
23.01.2021 13:00:00 1,5 0,7 - - 11 6 - - NW 994,6 12 0 0,0
23.01.2021 12:00:00 1,4 0,7 - - 13 7 - - NW 994,7 12 0 0,0
23.01.2021 11:00:00 1,1 0,7 - - 8 4 - - NNW 994,6 11 0 0,0
23.01.2021 10:00:00 0,1 -0,3 - - 5 3 - - NNW 994,5 6 0 0,0
23.01.2021 09:00:00 -0,5 -1,1 5,4 7,7 4 2 - - W 994,3 6 0 0,0
23.01.2021 08:00:00 0,4 -0,6 - - 8 4 - - WNW 994,1 16 0 0,0
23.01.2021 07:00:00 1,0 -0,1 - - 8 4 - - W 994,2 28 0 0,0
23.01.2021 06:00:00 1,5 -0,1 - - 5 3 - - WNW 994,1 40 0 0,0
23.01.2021 05:00:00 1,4 0,2 - - 8 4 - - WNW 993,9 50 0 0,0
23.01.2021 04:00:00 1,9 0,7 - - 13 7 - - WNW 994,2 50 0 0,0
23.01.2021 03:00:00 1,6 0,2 - - 9 5 - - W 994,0 50 0 0,0
23.01.2021 02:00:00 3,0 1,1 - - 18 10 - - WNW 993,7 50 0 0,0
23.01.2021 01:00:00 3,6 2,4 - - 13 7 - - WZW 993,8 45 0 0,0
23.01.2021 00:00:00 3,7 2,6 - - 11 6 - - WZW 993,7 45 - 0,0
22.01.2021 23:00:00 3,6 2,2 - - 11 6 - - WZW 993,4 45 0 0,0
22.01.2021 22:00:00 3,6 2,4 - - 13 7 - - ZW 993,2 40 0 0,0
22.01.2021 21:00:00 4,1 2,9 - - 11 6 - - Z 993,3 50 0 0,0
22.01.2021 20:00:00 3,7 2,5 - - 9 5 - - Z 993,8 50 0 1,4
22.01.2021 19:00:00 4,9 2,6 - - 18 10 - - ZZW 994,0 35 0 0,0
22.01.2021 18:00:00 3,4 1,3 - - 11 6 - - ZZW 994,3 29 0 0,0
22.01.2021 17:00:00 4,8 1,1 - - 11 6 - - ZW 994,0 30 0 0,0
22.01.2021 16:00:00 6,3 0,2 - - 9 5 - - WZW 994,0 45 54 0,0
22.01.2021 15:00:00 7,2 0,6 - - 13 7 - - WZW 993,8 40 60 0,0
22.01.2021 14:00:00 7,2 0,8 - - 16 9 - - WZW 993,5 30 60 0,0
22.01.2021 13:00:00 6,7 2,2 - - 18 10 - - WZW 993,7 30 60 0,0
22.01.2021 12:00:00 5,7 2,2 - - 18 10 - - W 993,7 22 60 0,0
22.01.2021 11:00:00 4,8 2,1 - - 16 9 - - WZW 993,6 30 60 0,0
22.01.2021 10:00:00 3,7 1,6 - - 18 10 - - WZW 993,1 30 54 0,0
22.01.2021 09:00:00 2,3 1,1 6,0 7,7 15 8 - - W 992,1 30 6 0,0
22.01.2021 08:00:00 1,8 0,3 - - 13 7 - - W 991,4 45 0 0,0
22.01.2021 07:00:00 1,9 0,5 - - 13 7 - - W 990,6 50 0 0,0
22.01.2021 06:00:00 2,3 1,1 - - 13 7 - - W 990,0 40 0 0,0
22.01.2021 05:00:00 2,5 1,2 - - 13 7 - - WZW 989,6 30 0 0,0
22.01.2021 04:00:00 2,7 1,2 - - 15 8 - - W 989,1 45 0 0,0
22.01.2021 03:00:00 2,9 1,1 - - 15 8 - - W 988,6 45 0 0,0
22.01.2021 02:00:00 3,5 1,4 - - 16 9 - - W 987,9 35 0 0,0
22.01.2021 01:00:00 4,1 1,5 - - 16 9 - - W 987,2 45 0 0,0
22.01.2021 00:00:00 4,7 1,7 - - 13 7 - - W 986,7 45 - 0,0
21.01.2021 23:00:00 5,6 2,8 - - 15 8 - - W 985,8 35 0 0,0
21.01.2021 22:00:00 5,8 3,7 - - 13 7 - - W 984,9 26 0 0,0
21.01.2021 21:00:00 5,8 3,5 - - 13 7 - - W 984,3 50 0 0,0
21.01.2021 20:00:00 5,6 3,3 - - 11 6 - - ZW 983,8 45 0 0,0
21.01.2021 19:00:00 5,6 2,9 - - 8 4 - - ZW 984,0 45 0 0,0
21.01.2021 18:00:00 5,9 3,3 - - 15 8 - - ZZW 984,6 50 0 0,0
21.01.2021 17:00:00 6,7 3,6 - - 21 11 - - ZZW 985,0 45 0 0,0
21.01.2021 16:00:00 7,2 4,3 - - 18 10 - - ZW 985,3 22 0 0,0
21.01.2021 15:00:00 8,1 3,4 - - 28 15 46 25 ZW 985,8 28 0 0,0
21.01.2021 14:00:00 8,6 2,3 - - 29 16 50 27 WZW 986,3 35 18 0,0

tt = temperatuur
td = dauwpunt
tt -20cm = temperatuur -20cm
tt -100cm = temperatuur -100cm
ff = windsnelheid
fx = windstoten
dd = windrichting
ppp = luchtdruk
vv = zicht
sd = Zonneschijnduur
rr = neerslag

Weerstations in de omgeving